Tracking 19562 objects as of 22-Mar-2019
HD Live streaming from Space Station
objects crossing your sky now

EUTELSAT W2

Track EUTELSAT W2 now!
EUTELSAT W2 is classified as:


NORAD ID: 25491
Int'l Code: 1998-056A
Perigee: 36,068.7 km
Apogee: 36,091.3 km
Inclination: 6.9 °
Period: 1,450.7 minutes
Semi major axis: 42450 km
RCS: 1.3454 m2 (large)
Launch date: October 5, 1998
Source: European Telecommunications Satellite Organization (EUTE)
Launch site: FRENCH GUIANA (FRGUI)

Twenty-four transponders, Europe, North Africa, Middle East.
aabbcc
Your satellite tracking list
Your tracking list is empty




NASA's NSSDC Master Catalog

Two Line Element Set (TLE):
1 25491U 98056A   19080.85051237 -.00000036 +00000-0 +00000-0 0  9998
2 25491 006.9011 055.1199 0002655 256.7274 076.2247 00.99259294074605
Source of the keplerian elements: AFSPC